Regional Weather Roundup
Issued by NWS Upton, NY

Current Version | Previous Version | Graphics & Text | Print | Product List | Glossary Off
Versions: 1 2 3 4 5 6 7 8 9 10 11 12 13 14 15 16 17 18 19 20 21 22 23 24 25 26 27 28

000
ASUS41 KOKX 210908
RWROKX

REGIONAL WEATHER ROUNDUP
NATIONAL WEATHER SERVICE NEW YORK NY
500 AM EDT SAT OCT 21 2017

NOTE: "FAIR" INDICATES FEW OR NO CLOUDS BELOW 12,000 FEET WITH NO
SIGNIFICANT WEATHER AND/OR OBSTRUCTIONS TO VISIBILITY.

NYZ071-072-176-178-NJZ106-104-211000-
NEW YORK CITY METRO AREA

CITY           SKY/WX    TMP DP  RH WIND       PRES   REMARKS
Central Park   CLEAR     57  38  48 VRB3      30.29R
Bronx Bot Gard   N/A     52  39  62 CALM      30.28R
LaGuardia APRT PTCLDY    61  43  51 N3        30.26R
Kennedy INTL   PTCLDY    53  40  61 N3        30.26S
Breezy Point     N/A     61 N/A N/A N6          N/A
Newark/Liberty PTCLDY    55  41  59 CALM      30.26S
Teterboro      CLEAR     51  41  68 CALM      30.26R
$$

NYZ177-179-078>081-211000-
LONG ISLAND NEW YORK

CITY           SKY/WX    TMP DP  RH WIND       PRES   REMARKS
Jones Beach      N/A     57 N/A N/A N5          N/A
Matinecock PT    N/A     61 N/A N/A W3          N/A
Farmingdale    CLEAR     49  42  77 CALM      30.26R
MacArthur/ISP  CLEAR     49  46  90 NW6       30.25S
Shirley        CLEAR     51  46  83 NW3       30.26R
Mt Sinai Harb    N/A    N/A N/A N/A W1          N/A
Westhampton    CLEAR     43  38  82 NW5       30.26R
East Hampton   FAIR      55  45  71 NW6       30.23R
Montauk          N/A     60  45  57 N5        30.25R
$$

NYZ052-065-067-211000-
HUDSON VALLEY

CITY           SKY/WX    TMP DP  RH WIND       PRES   REMARKS
White Plains   PTCLDY    46  39  76 NW8       30.26R
Larchmont Harb   N/A     54 N/A N/A CALM        N/A
Croton On Huds   N/A     48 N/A N/A NE5         N/A
Newburgh       CLEAR     46  39  76 CALM      30.28S
Montgomery     CLOUDY    43  39  86 CALM      30.27R
Poughkeepsie   CLOUDY    38  36  92 CALM      30.27R
Albany         CLEAR     43  36  76 CALM      30.26S
$$

NJZ001-105-106-008-010-013-015-019>022-104-211000-
NEW JERSEY

CITY           SKY/WX    TMP DP  RH WIND       PRES   REMARKS
Newark/Liberty PTCLDY    55  41  59 CALM      30.26S
Teterboro      CLEAR     51  41  68 CALM      30.26R
Caldwell       CLEAR     44  42  93 CALM      30.28R
Somerville     CLEAR     40  40 100 CALM      30.26R
Linden         FAIR      50  40  67 CALM      30.27R
Perth Amboy      N/A     52 N/A N/A W5          N/A
Sussex         CLOUDY    40  38  93 W3        30.29S
Andover          N/A     41  40  96 CALM      30.30R
Trenton        CLEAR     47  40  76 NW3       30.27R
Millville      CLEAR     46  43  89 CALM      30.27R
Atlantic City  CLEAR     47  41  80 CALM      30.27R
Wrightstown    CLEAR     44  40  89 CALM      30.25R
Toms River       N/A     39  36  89 CALM      30.28R
Belmar         CLEAR     50  39  66 W3        30.27R
$$

PAZ047>061-062-071-211000-
EASTERN PENNSYLVANIA

CITY           SKY/WX    TMP DP  RH WIND       PRES   REMARKS
Philadelphia   CLEAR     50  43  77 CALM      30.28R
Allentown      CLEAR     43  38  82 CALM      30.28R
Scranton       CLOUDY    45  36  70 SE5       30.30R
$$

CTZ002-004>006-009-010-012-RIZ004-006-007-MAZ004-011-015-211000-
SOUTHERN NEW ENGLAND
 IN CT

CITY           SKY/WX    TMP DP  RH WIND       PRES   REMARKS
Bradley INTL   CLEAR     42  40  92 CALM      30.25R
Hartford       CLEAR     44  42  93 CALM      30.26R
Danbury        CLEAR     40  37  89 CALM      30.29R
Wtrbury/Oxford CLEAR     45  36  70 CALM      30.27R
Norwalk Harbor   N/A     52 N/A N/A NW9         N/A
Bridgeport     PTCLDY    52  40  63 CALM      30.26R
Meriden        CLEAR     41  39  93 CALM      30.26R
New Haven      CLEAR     46  39  76 CALM      30.25R
Chester        FAIR      54  36  50 NW3       30.25R
Groton         CLEAR     52  38  58 N5        30.23R
Wilimantic     CLEAR     41  39  93 CALM      30.26R

 IN RI

CITY           SKY/WX    TMP DP  RH WIND       PRES   REMARKS
Providence     CLEAR     47  41  80 CALM      30.23R
Block Island   CLEAR     56  44  64 N6        30.24R
Westerly       PTCLDY    50  40  68 NE3       30.24R
 IN MA

CITY           SKY/WX    TMP DP  RH WIND       PRES   REMARKS
Boston         CLEAR     55  37  50 W8        30.22R
Worcester      CLEAR     53  32  44 W13       30.24R
Westfield      CLEAR     41  39  93 CALM      30.25R
Provincetown   CLEAR     47  45  93 W5        30.22R
Nantucket      CLEAR     52  49  89 N5        30.21R
$$

ANZ330-335-338-340-345-350-353-355-211000-
COASTAL MARINE OBSERVATIONS


STATION/POSITION TIME  SKY/WX   TEMP    WIND        PRES    VSBY  WAVE
                                AIR SEA DIR/SP/G                  HT/PER
                 (UTC)          (F)     (DEG/KT/KT) (MB)    (MI)  (FT/S)
NY HARB ENTRANCE 0750            64 64  320/  8/ 10 1023.6          2/ 9
20 S FIRE ISLAND 0750            65 64  330/ 10/ 10 1024.1          2/ 8
GREAT SOUTH BAY  0800            56 61  300/  4/  6   N/A
15 E BARNEGAT LI NOT AVBL
HUDSON CANYON    0750            65 65  330/ 10/ 12 1022.4          2/ 8
KINGS POINT      0830            57 65   70/  2/  2 1025.3
EXECUTION ROCKS  0830            60     320/  2/  4   N/A
WESTERN LI SOUND 0749            60     300/  6/  8   N/A           0
CENTRAL LI SOUND NOT AVBL
EASTERN LI SOUND NOT AVBL
ROBBINS REEF     0836            61     350/  7/  8 1025.2
$$


>>>>>>>>>>>>>>>>>>>>>>>>>>>> KEY <<<<<<<<<<<<<<<<<<<<<<<<<<<
>                                                          <
>     SKY/WX - Sky Condition/Present Weather               <
>     TMP    - Temperature in Fahrenheit                   <
>     DP     - Dew Point in Fahrenheit                     <
>     RH     - Relative Humidity in Percent                <
>     WIND   - Direction (from) and Speed in MPH           <
>     PRES   - Mean Sea Level Pressure (inches of Hg)      <
>     WCI    - Wind Chill Index                            <
>     VSB    - VISIBILITY IN MILES                         <
>     HX     - HEAT INDEX                                  <
>     TC     - TEMPERATURE IN CELSIUS                      <
>     VRB    - VARIABLE WIND DIRECTION                     <
>                                                          <
>>>>>>>>>>>>>>>>>>>>>>>>>>>> KEY <<<<<<<<<<<<<<<<<<<<<<<<<<<




USA.gov is the U.S. government's official web portal to all federal, state and local government web resources and services.